sat.trackr.live / text

‹ back to catalog

STARLINK-36264

NORAD 68307 · 2026-057P

PAYLOAD ACTIVE UNKNOWN

§ Identity

Operator
Country
US
Launch date
2026-03-20
Launch site
AFWTR
Launch vehicle
Mass (kg)
RCS (m²)

Purposes: comms

External: N2YO · Heavens-Above · Gunter

§ Orbital elements

Epoch: 2026-09-20T02:13:52.785120Z

Period
93.91 min
Inclination
97.2842°
Eccentricity
0.0000735
Mean motion
15.33453742 rev/d
Perigee alt
465.0 km
Apogee alt
466.0 km
Semi-major
6,843.7 km
B*
4.8897e-4
RAAN
28.5363°
Arg perigee
94.6488°
Mean anomaly
265.4838°
Rev number
2,845

§ Raw data

STARLINK-362641 68307U 26057P   26263.09297205  .00015748  00000+0  48897-3 0  99902 68307  97.2842  28.5363 0000735  94.6488 265.4838 15.33453742 28451

JSON: /api/v1/satellites/68307 · /tle

For live sub-satellite position, see the globe view (requires WebGL).

§ Visibility from observer

Set your observer location to see the next 7 days of passes ≥ 10°. The values pass through the URL so the page stays shareable.

No JS? Fill the form by hand. The geolocation button needs JavaScript.